GFSGBSN_con_mlcape_129.txt.gz
CAPE
3 3 2 1 1 1 1 0 2 0 2 0 0 0 0 0 0 0 0 0 0 0 0 0 0 0 0 0 0 0 0 0 0 0 0 0 0 0 0 0 0 0 0 0 0 0 0
0 0 0 0 0 0 0 0 0 0 0 0 0 0 0 0 0 0 0 0 0 0 0 0 0 0 0 0 0 0 0 0 0 0 0 0 0 0 0 0 0 0 0 0 0 0 0
0 0 0 0 0 0 0 0 0 0 0 0 0 0 0 0 0 0 0 0 0 0 0 0 0 0 0 0 0 0 0 0 0 0 0 0 0 0 0 0 0 0 0 0 0 0 0
2 3 4 0 0 0 0 0 0 0 0 0 0 0 1 0 0 0 0 0 0 0 0 0 0 0 0 0 0 0 0 0 0 0 0 0 0 0 0 0 0 0 0 0 0 0 0
5 2 2 12 5 8 10 1 0 0 0 0 0 0 0 0 0 0 0 0 0 0 0 0 0 0 0 0 0 0 0 0 0 0 0 0 0 0 0 0 0 0 0 0 0 0 0
10 5 1 13 4 0 0 0 0 0 0 0 0 0 3 0 0 0 0 0 0 0 0 0 0 0 0 0 0 0 0 0 0 0 0 0 0 0 0 0 0 0 0 0 0 0 0
17 20 8 12 12 10 0 0 0 0 0 0 0 0 8 1 0 0 0 0 0 0 0 0 0 0 0 0 0 0 0 0 0 0 0 0 0 0 0 0 0 0 0 0 0 0 0
8 10 16 15 6 13 11 0 0 2 14 6 0 3 9 4 0 0 0 0 0 0 0 0 0 0 0 0 0 0 0 0 0 0 0 0 0 0 0 0 0 0 0 0 0 0 0
30 14 11 19 11 7 14 7 9 2 0 16 11 5 14 11 0 1 1 1 0 0 0 0 0 0 0 0 0 0 0 0 0 0 0 0 0 0 0 0 0 0 0 0 0 0 0
23 19 14 14 12 6 5 13 7 4 0 0 6 14 26 1 2 0 0 0 0 0 0 0 0 0 0 0 0 0 0 0 0 0 0 0 0 0 0 0 0 0 0 0 0 0 0
12 19 15 13 10 7 4 12 6 6 5 0 4 12 0 20 4 0 0 3 0 0 0 0 0 0 0 0 0 0 0 0 0 0 0 0 0 0 0 0 0 0 0 0 0 0 0
1 10 14 6 3 8 4 5 4 1 6 0 0 0 3 2 2 0 0 0 0 0 0 0 0 0 0 0 0 0 0 0 0 0 0 0 0 0 0 0 0 0 0 0 0 0 0
11 4 3 15 7 8 7 5 2 1 10 0 0 0 2 0 12 0 0 0 4 0 0 0 0 0 0 0 0 0 0 0 0 0 0 0 0 0 0 0 0 0 0 0 0 0 0
39 12 4 2 10 14 4 10 8 5 8 1 0 4 6 0 0 0 0 5 0 0 0 0 0 0 0 0 0 0 0 0 0 0 0 0 0 0 0 0 0 0 0 0 0 0 0
57 37 24 9 0 9 12 6 6 4 3 9 7 6 1 1 0 0 0 13 0 0 0 0 0 0 0 0 0 0 0 0 0 0 0 0 0 0 0 0 0 0 0 0 0 0 0
61 62 38 30 14 0 11 13 6 3 7 8 0 2 1 1 0 0 35 0 0 0 0 0 0 0 0 0 0 0 0 0 0 0 0 0 0 0 0 0 0 0 0 0 0 0 0
18 29 39 49 33 9 4 8 10 15 7 10 10 14 0 0 0 2 5 1 0 0 0 0 0 0 0 0 0 0 0 0 0 0 0 0 0 0 0 0 0 0 0 0 0 0 0
49 67 25 20 39 16 3 3 12 16 5 0 16 2 1 0 2 0 0 0 0 0 0 0 0 4 0 0 0 0 0 0 0 0 0 0 0 0 0 0 0 0 0 0 0 0 0
70 46 15 33 78 27 10 0 5 24 8 0 9 3 2 5 12 0 0 0 0 0 0 0 0 0 0 0 0 0 0 0 0 0 0 0 0 0 0 0 0 0 0 0 0 0 0
55 57 11 12 33 59 19 3 0 17 10 8 1 9 8 1 0 0 0 0 2 0 0 0 0 0 0 0 0 0 0 0 0 0 0 0 0 0 0 0 0 0 0 0 0 0 0
36 58 41 31 4 99 19 22 2 14 4 2 10 3 0 3 0 0 0 0 1 0 0 1 0 0 0 0 0 0 0 0 0 0 0 0 0 0 0 0 0 0 0 0 0 0 0
55 67 62 50 32 10 17 22 2 6 1 4 2 0 0 0 0 1 1 0 0 0 0 0 0 0 0 0 0 0 0 0 0 0 0 0 0 0 0 0 0 0 0 0 0 0 0
77 97 45 22 14 18 17 16 10 1 15 6 5 1 0 0 0 1 0 0 0 0 0 0 0 0 0 0 3 0 0 0 0 0 0 0 0 0 0 0 0 0 0 0 0 0 0
103 94 74 50 72 32 12 12 4 7 7 0 0 17 1 0 0 0 0 0 0 0 0 7 0 0 0 0 0 0 0 0 0 0 0 0 0 0 0 0 0 0 0 0 0 0 0
84 97 99 81 69 53 39 26 47 43 26 0 0 14 9 0 0 0 0 0 0 0 16 0 0 0 0 0 0 0 0 0 0 0 0 0 0 0 0 0 0 0 0 0 0 0 0
47 60 64 69 39 33 37 53 65 22 15 5 0 7 2 17 0 0 0 0 0 0 0 0 0 0 0 0 0 0 0 0 0 0 0 0 0 0 0 0 0 0 0 0 0 0 0
9 26 36 51 47 43 47 44 58 53 16 31 3 4 21 1 0 0 0 0 0 0 0 0 0 0 0 0 0 0 0 0 0 0 0 0 0 0 0 0 0 0 0 0 0 0 0
3 1 16 22 34 40 30 27 49 74 30 41 10 5 10 0 2 17 3 0 0 0 0 0 1 3 0 0 0 0 0 0 0 0 0 0 0 0 0 0 0 0 0 0 0 0 0
16 3 3 10 20 23 19 21 39 61 42 71 13 12 2 6 0 1 1 0 0 0 0 0 0 0 0 0 0 0 0 0 0 0 0 0 0 0 0 0 0 0 0 0 0 0 0

GFSGBSN_con_mlcape_132.txt.gz
CAPE
2 2 3 3 1 0 4 14 8 2 0 0 0 0 0 0 0 0 0 0 0 0 0 0 0 0 0 0 0 0 0 0 0 0 0 0 0 0 0 0 0 0 0 0 0 0 0
0 0 0 0 0 2 2 2 1 1 0 1 0 0 0 0 0 0 0 0 0 0 0 0 0 0 0 0 0 0 0 0 0 0 0 0 0 0 0 0 0 0 0 0 0 0 0
0 0 0 2 2 0 0 0 0 0 0 0 0 1 0 0 0 0 0 0 0 0 0 0 0 0 0 0 0 0 0 0 0 0 0 0 0 0 0 0 0 0 0 0 0 0 0
7 6 0 1 0 0 0 0 0 0 0 0 0 0 0 1 0 0 0 0 0 0 0 0 0 0 0 0 0 0 0 0 0 0 0 0 0 0 0 0 0 0 0 0 0 0 0
19 1 6 0 7 2 0 0 0 0 0 0 0 0 0 0 1 0 0 0 0 0 0 0 0 0 0 0 0 0 0 0 0 0 0 0 0 0 0 0 0 0 0 0 0 0 0
9 7 5 0 2 11 16 21 9 10 8 0 0 0 0 0 0 0 1 0 0 0 0 0 0 0 0 0 0 0 0 0 0 0 0 0 0 0 0 0 0 0 0 0 0 0 0
21 19 13 2 4 10 13 2 0 0 0 0 0 0 0 2 0 0 0 0 0 0 0 0 0 0 0 0 0 0 0 0 0 0 0 0 0 0 0 0 0 0 0 0 0 0 0
15 14 12 11 11 7 16 7 0 0 0 3 0 3 0 0 5 0 2 7 2 0 0 0 0 0 0 0 0 0 0 0 0 0 0 0 0 0 0 0 0 0 0 0 0 0 0
16 21 16 13 14 18 8 15 7 3 0 23 18 6 0 12 8 3 11 2 0 0 3 0 0 0 0 0 0 0 0 0 0 0 0 0 0 0 0 0 0 0 0 0 0 0 0
23 30 22 13 14 16 3 5 17 6 4 0 26 22 1 18 23 1 8 4 0 0 0 0 0 0 0 0 0 0 0 0 0 0 0 0 0 0 0 0 0 0 0 0 0 0 0
7 5 21 25 27 19 3 3 2 10 7 2 2 24 6 36 0 1 0 24 0 0 0 0 0 0 0 0 0 0 0 0 0 0 0 0 0 0 0 0 0 0 0 0 0 0 0
2 9 0 11 26 15 3 2 4 10 6 6 1 27 19 8 4 0 0 0 0 0 0 0 0 0 0 0 0 0 0 0 0 0 0 0 0 0 0 0 0 0 0 0 0 0 0
23 17 6 2 12 14 6 3 5 2 4 5 0 6 24 12 22 0 0 8 1 0 0 0 0 0 0 0 0 0 0 0 0 0 0 0 0 0 0 0 0 0 0 0 0 0 0
24 24 27 7 1 2 4 5 6 5 1 8 0 7 20 9 0 1 2 7 0 0 0 0 0 0 0 0 0 0 0 0 0 0 0 0 0 0 0 0 0 0 0 0 0 0 0
46 36 35 29 9 7 1 1 11 11 9 19 10 3 5 7 0 0 24 8 0 0 0 0 0 0 0 0 0 0 0 0 0 0 0 0 0 0 0 0 0 0 0 0 0 0 0
50 60 44 52 10 11 3 1 8 9 5 15 11 10 15 0 0 0 59 2 0 0 0 0 0 0 0 0 0 0 0 0 0 0 0 0 0 0 0 0 0 0 0 0 0 0 0
79 38 70 43 32 13 9 3 3 8 2 10 17 9 3 10 0 14 36 0 0 0 0 0 0 0 0 0 0 0 0 0 0 0 0 0 0 0 0 0 0 0 0 0 0 0 0
84 49 37 49 23 43 28 8 6 3 6 23 30 5 1 4 28 0 4 0 0 0 0 0 0 0 0 0 0 0 0 0 0 0 0 0 0 0 0 0 0 0 0 0 0 0 0
64 43 6 1 8 14 54 11 10 10 22 5 19 2 1 1 5 1 0 0 0 0 0 0 0 0 0 0 0 0 0 0 0 0 0 0 0 0 0 0 0 0 0 0 0 0 0
36 65 62 88 78 25 22 31 14 4 17 4 1 10 18 8 0 0 0 0 3 0 1 0 0 0 0 0 0 0 0 0 0 0 0 0 0 0 0 0 0 0 0 0 0 0 0
34 22 41 58 102 63 22 11 21 11 23 8 1 0 0 0 0 0 0 0 3 2 1 0 0 8 13 1 0 0 0 0 0 0 0 0 0 0 0 0 0 0 0 0 0 0 0
54 15 25 49 90 57 4 50 2 19 53 5 0 0 0 0 0 0 0 0 0 0 1 0 5 1 0 0 0 0 0 0 0 0 0 0 0 0 0 0 0 0 0 0 0 0 0
85 62 27 22 56 50 16 3 30 9 33 0 0 0 0 0 0 0 0 0 0 0 0 0 0 4 1 0 1 0 0 0 0 0 0 0 0 0 0 0 0 0 0 0 0 0 0
79 33 49 42 38 70 96 1 0 21 8 0 0 1 4 1 0 0 0 0 0 0 0 4 0 2 0 0 0 0 0 0 0 0 0 0 0 0 0 0 0 0 0 0 0 0 0
56 58 89 68 68 87 102 18 0 35 16 0 0 2 1 5 0 0 0 0 0 0 2 0 0 0 0 0 3 0 0 0 0 0 0 0 0 0 0 0 0 0 0 0 0 0 0
75 78 59 45 76 82 65 30 1 20 17 0 0 0 2 0 0 0 0 0 0 0 0 0 5 0 0 0 0 0 0 0 0 0 0 0 0 0 0 0 0 0 0 0 0 0 0
39 63 60 73 92 88 76 26 9 14 14 0 0 0 0 0 0 1 0 0 0 0 0 0 0 1 0 0 0 0 0 0 0 0 0 0 0 0 0 0 0 0 0 0 0 0 0
23 45 76 88 98 114 102 23 13 13 6 6 0 0 0 0 0 6 9 1 0 0 0 0 0 1 0 17 6 1 0 0 0 0 0 0 0 0 0 0 0 0 0 0 0 0 0
17 24 46 66 90 92 58 29 18 9 19 28 3 0 0 0 0 0 0 0 0 0 0 0 0 0 0 0 0 0 0 0 0 0 0 0 0 0 0 0 0 0 0 0 0 0 0

GFSGBSN_con_mlcape_135.txt.gz
CAPE
3 2 1 2 1 1 12 17 12 8 2 0 0 0 0 0 0 0 0 0 0 0 0 0 0 0 0 0 0 0 0 0 0 0 0 0 0 0 0 0 0 0 0 0 0 0 0
0 0 0 0 0 2 3 2 0 0 2 5 2 1 0 0 0 0 0 0 0 0 0 0 0 0 0 0 0 0 0 0 0 0 0 0 0 0 0 0 0 0 0 0 0 0 0
1 1 0 0 0 0 0 0 0 1 0 1 0 1 0 0 0 0 0 0 0 0 0 0 0 0 0 0 0 0 0 0 0 0 0 0 0 0 0 0 0 0 0 0 0 0 0
0 0 0 3 0 0 0 0 0 0 0 0 0 0 0 0 0 1 0 1 0 0 0 0 0 0 0 0 0 0 0 0 0 0 0 0 0 0 0 0 0 0 0 0 0 0 0
0 1 1 0 0 0 2 0 0 0 0 0 0 0 0 0 0 0 0 1 0 0 0 0 0 0 0 0 0 0 0 0 0 0 0 0 0 0 0 0 0 0 0 0 0 0 0
13 9 9 0 0 0 3 4 0 0 0 0 0 0 0 0 0 0 0 0 0 0 0 0 0 0 0 0 0 0 0 0 0 0 0 0 0 0 0 0 0 0 0 0 0 0 0
21 17 7 3 0 0 1 17 0 0 0 0 0 1 5 0 4 0 0 0 0 0 0 0 0 0 0 0 0 0 0 0 0 0 0 0 0 0 0 0 0 0 0 0 0 0 0
23 13 11 8 4 6 9 19 0 0 0 0 0 0 0 0 11 3 3 4 0 0 0 0 0 0 0 0 0 0 0 0 0 0 0 0 0 0 0 0 0 0 0 0 0 0 0
7 7 15 20 14 7 12 13 9 3 0 0 10 14 1 1 7 10 4 0 0 0 0 0 0 0 0 0 0 0 0 0 0 0 0 0 0 0 0 0 0 0 0 0 0 0 0
3 0 10 11 17 12 17 12 5 10 4 0 10 36 6 2 21 6 12 0 0 0 0 0 0 0 0 0 0 0 0 0 0 0 0 0 0 0 0 0 0 0 0 0 0 0 0
9 5 3 3 20 18 14 6 3 7 8 3 2 16 8 24 3 2 0 1 0 0 0 0 0 0 0 0 0 0 0 0 0 0 0 0 0 0 0 0 0 0 0 0 0 0 0
4 5 4 2 1 10 13 9 1 2 13 7 1 9 21 5 3 0 0 3 0 0 0 0 0 0 0 0 0 0 0 0 0 0 0 0 0 0 0 0 0 0 0 0 0 0 0
38 29 14 3 2 2 7 6 1 0 7 10 8 1 25 14 11 0 0 18 0 0 0 0 0 0 0 0 0 0 0 0 0 0 0 0 0 0 0 0 0 0 0 0 0 0 0
40 14 7 16 6 0 5 10 0 0 3 5 10 3 25 24 0 0 12 20 0 0 0 0 0 0 0 0 0 0 0 0 0 0 0 0 0 0 0 0 0 0 0 0 0 0 0
22 33 8 4 7 10 4 14 0 1 0 1 19 9 16 7 5 1 30 8 0 0 0 0 0 0 0 0 0 0 0 0 0 0 0 0 0 0 0 0 0 0 0 0 0 0 0
38 67 21 10 3 6 13 9 4 0 11 8 11 13 5 2 0 12 68 7 0 0 0 0 0 0 0 0 0 0 0 0 0 0 0 0 0 0 0 0 0 0 0 0 0 0 0
24 7 49 31 0 24 37 10 7 2 14 30 27 14 1 16 2 56 43 0 0 0 0 0 0 0 0 0 0 0 0 0 0 0 0 0 0 0 0 0 0 0 0 0 0 0 0
7 16 1 69 1 56 40 0 12 6 15 28 35 2 0 11 43 6 41 0 0 0 0 0 0 0 0 0 0 0 0 0 0 0 0 0 0 0 0 0 0 0 0 0 0 0 0
56 10 24 96 49 52 69 2 12 11 7 15 18 0 1 22 18 1 1 0 2 0 0 0 0 0 0 0 0 0 0 0 0 0 0 0 0 0 0 0 0 0 0 0 0 0 0
58 6 25 68 63 74 75 33 5 16 10 8 0 0 7 12 1 1 0 0 1 6 2 0 0 0 0 0 0 0 0 0 0 0 0 0 0 0 0 0 0 0 0 0 0 0 0
51 6 0 97 70 30 28 59 30 11 16 8 1 0 0 0 2 1 0 0 3 6 2 0 0 2 0 0 0 0 0 0 0 0 0 0 0 0 0 0 0 0 0 0 0 0 0
41 0 13 8 84 54 7 9 116 16 14 0 0 2 0 0 0 3 0 0 0 0 0 1 2 0 11 4 0 0 0 0 0 0 0 0 0 0 0 0 0 0 0 0 0 0 0
20 35 24 14 12 64 108 56 70 25 7 1 0 0 0 0 0 0 0 0 0 0 0 2 2 16 6 3 0 0 0 0 0 0 0 0 0 0 0 0 0 0 0 0 0 0 0
19 28 49 49 40 44 74 49 86 31 6 0 0 0 0 0 0 0 0 0 0 0 0 0 4 5 0 0 0 0 0 0 0 0 0 0 0 0 0 0 0 0 0 0 0 0 0
11 15 41 55 53 22 42 51 13 19 40 0 0 0 0 0 0 0 0 0 0 2 1 0 0 0 0 0 0 0 0 0 0 0 0 0 0 0 0 0 0 0 0 0 0 0 0
8 5 15 31 41 44 24 26 12 70 60 4 1 0 0 0 0 0 0 0 0 0 0 3 0 0 3 2 3 0 0 0 0 0 0 0 0 0 0 0 0 0 0 0 0 0 0
26 29 26 52 49 45 44 24 33 19 51 1 1 0 8 2 0 1 0 0 0 0 0 0 9 6 0 1 17 2 0 0 0 0 0 0 0 0 0 0 0 0 0 0 0 0 0
21 26 45 56 53 56 64 63 51 32 57 1 0 0 5 0 0 24 8 0 0 0 0 0 0 0 1 0 2 3 0 0 0 0 0 0 0 0 0 0 0 0 0 0 0 0 0
22 28 48 84 91 75 80 61 63 40 39 5 1 0 0 0 0 0 0 0 0 0 0 0 0 0 0 0 2 2 0 0 0 0 0 0 0 0 0 0 0 0 0 0 0 0 0

GFSGBSN_con_mlcape_138.txt.gz
CAPE
1 2 1 0 0 1 3 6 4 2 2 0 0 0 0 0 0 0 0 0 0 0 0 0 0 0 0 0 0 0 0 0 0 0 0 0 0 0 0 0 0 0 0 0 0 0 0
0 1 0 2 1 0 2 2 1 3 3 6 3 2 1 0 0 0 0 0 0 0 0 0 0 0 0 0 0 0 0 0 0 0 0 0 0 0 0 0 0 0 0 0 0 0 0
1 0 0 0 0 1 0 2 1 1 1 1 0 0 0 0 0 0 0 0 0 0 0 0 0 0 0 0 0 0 0 0 0 0 0 0 0 0 0 0 0 0 0 0 0 0 0
1 4 3 0 0 0 0 0 0 0 0 0 0 0 0 0 0 1 0 0 0 0 0 0 0 0 0 0 0 0 0 0 0 0 0 0 0 0 0 0 0 0 0 0 0 0 0
0 4 6 2 0 0 0 0 0 0 0 0 0 0 0 0 0 0 0 0 1 0 0 0 0 0 0 0 0 0 0 0 0 0 0 0 0 0 0 0 0 0 0 0 0 0 0
12 2 0 12 0 0 0 0 7 0 0 0 0 0 0 0 0 0 1 0 1 0 0 0 0 0 0 0 0 0 0 0 0 0 0 0 0 0 0 0 0 0 0 0 0 0 0
0 18 6 1 0 0 1 0 10 0 2 7 11 1 0 0 0 3 3 0 0 0 0 0 0 0 0 0 0 0 0 0 0 0 0 0 0 0 0 0 0 0 0 0 0 0 0
10 14 8 9 7 3 0 0 4 1 0 0 0 0 0 4 5 2 16 5 1 0 0 0 0 0 0 0 0 0 0 0 0 0 0 0 0 0 0 0 0 0 0 0 0 0 0
1 3 3 6 0 5 4 5 7 0 0 0 0 5 0 3 10 19 9 5 0 0 0 0 0 0 0 0 0 0 0 0 0 0 0 0 0 0 0 0 0 0 0 0 0 0 0
16 5 2 2 2 4 7 4 5 8 1 0 0 15 23 19 16 14 4 1 0 0 2 0 0 0 0 0 0 0 0 0 0 0 0 0 0 0 0 0 0 0 0 0 0 0 0
26 17 6 2 0 3 10 13 14 7 4 3 0 14 27 31 14 4 0 14 5 0 0 0 0 0 0 0 0 0 0 0 0 0 0 0 0 0 0 0 0 0 0 0 0 0 0
3 4 5 10 0 3 2 8 10 5 4 5 2 4 25 26 30 3 1 5 0 0 0 0 0 0 0 0 0 0 0 0 0 0 0 0 0 0 0 0 0 0 0 0 0 0 0
6 5 1 23 7 1 2 4 6 4 4 8 8 0 28 51 16 0 42 15 1 0 0 0 0 0 0 0 0 0 0 0 0 0 0 0 0 0 0 0 0 0 0 0 0 0 0
0 4 2 9 27 7 0 2 9 1 1 12 14 9 1 30 22 15 39 9 0 0 0 0 0 0 0 0 0 0 0 0 0 0 0 0 0 0 0 0 0 0 0 0 0 0 0
2 0 3 0 16 24 3 0 8 5 0 7 13 22 3 6 19 38 31 3 0 0 0 0 0 0 0 0 0 0 0 0 0 0 0 0 0 0 0 0 0 0 0 0 0 0 0
14 2 9 10 19 13 19 3 2 13 0 3 13 16 4 45 18 74 83 0 0 0 0 0 0 0 0 0 0 0 0 0 0 0 0 0 0 0 0 0 0 0 0 0 0 0 0
23 17 6 6 39 31 14 7 9 16 0 0 10 21 5 51 35 85 40 0 0 0 0 0 0 0 0 0 0 0 0 0 0 0 0 0 0 0 0 0 0 0 0 0 0 0 0
39 20 6 24 14 48 18 15 16 12 2 11 27 14 11 18 46 18 38 0 0 1 0 0 0 0 0 0 0 0 0 0 0 0 0 0 0 0 0 0 0 0 0 0 0 2 0
46 42 25 17 2 20 55 17 14 23 2 18 16 12 13 53 40 1 1 0 4 0 1 0 2 16 5 0 0 0 0 0 0 0 0 0 0 0 0 0 0 0 0 0 0 0 0
78 49 45 32 27 17 2 56 39 16 14 25 0 2 5 18 0 2 0 0 14 7 19 12 7 19 26 32 2 0 0 0 0 0 0 0 0 0 0 1 0 0 0 0 0 0 0
80 76 70 40 7 30 19 76 90 24 2 13 9 3 0 2 3 0 20 2 0 18 13 18 10 1 15 30 31 7 0 0 0 0 0 0 0 0 0 0 0 0 0 0 0 0 0
44 58 27 74 3 59 86 40 70 14 9 10 1 0 1 11 0 7 0 3 8 9 19 9 8 6 28 7 7 0 0 0 0 0 0 0 0 0 0 0 0 0 0 0 0 0 0
40 64 78 16 0 1 25 139 121 42 22 0 3 9 3 2 4 12 0 0 0 21 19 15 3 23 25 19 4 2 3 0 0 0 0 0 0 0 0 0 0 0 0 0 0 0 0
31 79 60 30 0 7 13 98 172 97 15 0 0 3 19 4 10 8 0 1 2 7 7 26 29 26 13 3 0 0 0 0 4 0 0 0 0 3 2 0 0 0 0 0 0 0 0
31 68 44 45 19 14 1 11 110 182 64 0 0 2 15 20 4 6 5 1 27 2 18 14 25 47 0 0 11 13 4 0 0 0 0 0 2 5 0 4 0 0 0 0 0 0 0
17 34 16 18 37 5 12 11 36 66 10 5 4 1 1 30 0 7 30 20 11 7 48 25 1 14 23 17 8 0 0 0 0 0 0 0 0 6 6 4 0 0 0 0 0 0 0
23 21 4 5 21 17 18 8 19 112 36 2 3 0 3 2 12 9 5 16 11 13 9 14 16 4 76 8 7 1 1 6 2 0 0 0 0 0 8 8 0 0 0 0 0 0 0
15 16 13 1 19 47 32 5 15 23 22 4 0 0 1 1 9 14 7 5 19 18 7 11 34 9 22 4 11 12 10 23 6 3 10 0 0 1 4 2 2 0 0 0 0 0 0
5 7 5 5 1 1 41 24 9 12 17 15 4 1 3 6 11 10 10 5 28 62 45 16 0 1 0 5 1 9 14 13 6 0 0 0 0 6 0 2 0 0 0 0 0 0 0

GFSGBSN_con_mlcape_141.txt.gz
CAPE
1 2 3 1 0 0 0 0 0 0 0 0 0 0 0 0 0 0 0 0 0 0 0 0 0 0 0 0 0 0 0 0 0 0 0 0 0 0 0 0 0 0 0 0 0 0 0
1 0 0 1 3 2 0 2 2 0 0 1 1 0 1 0 0 0 0 0 0 0 0 0 0 0 0 0 0 0 0 0 0 0 0 0 0 0 0 0 0 0 0 0 0 0 0
0 0 0 0 0 2 2 2 2 1 1 0 0 2 1 1 0 0 0 0 0 0 0 0 0 0 0 0 0 0 0 0 0 0 0 0 0 0 0 0 0 0 0 0 0 0 0
0 1 1 0 0 1 0 0 0 0 0 2 2 0 0 0 0 0 0 0 0 0 0 0 0 0 0 0 0 0 0 0 0 0 0 0 0 0 0 0 0 0 0 0 0 0 0
0 0 3 6 2 1 0 0 0 0 0 0 0 0 0 0 0 0 0 0 0 1 0 0 0 3 0 0 0 0 0 0 0 0 0 0 0 0 0 0 0 0 0 0 0 0 0
19 14 3 3 5 2 0 0 0 0 0 0 0 0 0 0 0 0 0 0 0 0 0 0 0 0 0 0 0 0 0 0 0 0 0 0 0 0 0 0 0 0 0 0 0 0 0
10 10 20 16 0 0 0 0 0 0 0 0 0 3 0 0 0 1 0 0 0 0 0 0 0 0 0 0 0 0 0 0 0 0 0 0 0 0 0 0 0 0 0 0 0 0 0
1 10 8 14 6 12 15 9 0 5 2 1 2 3 0 0 4 0 6 0 4 0 0 1 1 2 0 2 0 0 0 0 0 0 0 0 0 0 0 0 0 0 0 0 0 0 0
2 0 2 2 7 10 7 3 0 11 6 0 0 0 0 0 5 14 0 0 0 0 3 0 1 0 0 0 0 0 0 0 0 0 0 0 0 0 0 0 0 0 0 0 0 0 0
3 4 0 1 2 0 5 9 11 20 2 4 0 0 18 0 15 20 42 16 0 0 5 0 0 0 0 0 0 0 1 0 0 0 0 0 0 0 0 0 0 0 0 0 0 0 0
2 0 0 4 1 0 0 0 14 20 17 1 0 1 21 45 13 9 0 51 68 21 0 0 0 0 0 0 0 0 0 1 0 0 0 0 0 0 0 0 0 0 0 0 0 0 0
0 0 3 0 0 0 0 0 1 21 18 11 3 0 39 23 56 20 19 69 42 1 0 0 0 0 0 0 0 0 0 1 1 0 0 0 0 0 0 0 0 0 0 0 0 0 0
0 0 0 0 0 0 3 0 0 1 15 8 8 7 10 52 13 63 88 35 20 0 0 0 0 0 0 0 0 0 0 0 0 0 0 4 0 0 0 0 0 0 0 0 0 0 0
11 0 0 0 0 2 10 6 4 1 0 6 16 25 8 5 45 76 101 34 3 0 0 0 0 0 0 0 0 0 0 0 0 0 0 0 0 0 0 0 0 0 0 0 0 0 0
24 11 2 0 0 1 8 23 8 12 3 0 4 22 0 14 6 59 79 30 0 0 0 0 0 0 0 0 0 0 0 0 0 0 0 0 0 0 0 0 0 0 0 0 0 0 0
5 12 16 5 2 0 2 11 22 11 10 1 3 13 0 10 22 111 74 12 0 0 0 0 0 0 0 0 0 0 0 0 0 0 0 0 0 0 0 0 0 0 0 0 0 0 0
17 12 6 11 9 0 4 9 23 11 16 0 14 20 0 4 36 117 36 2 0 1 0 0 0 0 0 0 1 0 0 0 0 0 0 0 0 0 0 0 0 0 0 0 0 0 0
8 10 11 6 11 12 3 11 22 23 18 1 16 7 17 15 13 31 32 0 0 0 1 0 0 0 0 0 6 0 0 0 0 0 0 0 0 0 0 0 0 0 0 0 0 0 0
12 10 9 17 21 9 0 19 26 11 33 2 4 17 42 90 27 4 0 0 1 0 0 9 9 1 2 1 1 1 12 0 0 0 0 0 0 0 0 0 0 0 0 0 1 7 2
14 13 23 23 32 12 3 11 62 20 16 3 3 7 24 11 29 7 6 0 5 0 5 2 5 14 36 37 15 21 3 0 0 0 0 0 0 0 0 0 0 0 0 0 0 0 0
26 25 42 59 49 32 20 13 2 25 21 22 3 13 0 1 14 1 18 3 12 4 0 10 1 0 10 16 13 39 5 0 0 0 0 0 0 0 0 0 0 0 2 8 1 0 4
43 35 35 89 80 50 28 24 20 14 23 19 0 10 12 2 0 13 6 16 18 5 12 3 13 12 0 0 1 5 5 0 0 0 0 0 1 0 0 0 0 0 0 0 0 0 0
31 27 41 63 87 7 73 17 11 4 23 1 2 2 25 10 6 13 10 0 22 18 35 32 29 32 11 5 19 1 0 0 0 0 0 0 0 0 0 0 1 0 0 0 0 0 1
50 30 32 53 81 7 44 37 27 94 27 0 1 13 10 21 14 6 0 2 4 46 37 7 57 29 41 7 0 6 18 8 5 0 0 0 0 11 2 1 2 0 0 0 11 8 0
26 19 29 55 74 81 19 9 0 18 126 0 9 9 6 0 22 36 6 7 56 62 61 59 93 53 5 4 6 1 0 1 3 0 0 11 1 3 9 10 0 0 0 0 0 0 0
20 7 24 48 78 64 11 5 0 0 37 11 8 4 3 0 19 23 40 25 26 17 14 25 65 59 15 15 13 2 0 0 0 11 10 11 28 31 12 10 1 0 0 0 0 0 0
8 11 22 52 66 69 0 1 0 1 15 11 2 0 0 1 1 38 72 56 68 64 58 80 72 125 75 23 8 2 0 0 5 6 0 0 15 0 3 4 0 0 0 0 0 0 0
1 12 14 34 26 26 12 5 0 19 15 3 1 3 0 30 17 53 101 76 63 55 56 63 35 3 83 67 24 1 0 0 9 2 6 0 9 6 2 3 0 2 3 0 1 0 0
0 3 13 12 10 15 6 11 5 10 12 9 5 9 8 7 1 67 152 113 115 107 64 47 20 41 15 5 5 3 12 31 11 9 6 7 12 20 12 5 24 27 4 0 0 0 0